OPS 4682 DEB, 17666

Orbit data source: Space-Track

OPS 4682 DEB, 17666 is space debris in LEO originally from a launch on Sat, 03 Apr 1965 UTC launched from the Air Force Western Test Range (AFWTR). Debris objects in space refer to the collection of defunct objects orbiting the Earth. Examples of debris include non-operational satellites, rocket bodies, and fragments generated from explosions, collisions, or faulty payload assembly.

Loading next visibility...
Identifier
17666, 1965-027V
Orbit
LEO
Country
Flag of USUS
Related business
Manufacturer
Unknown
Mission
Spacecraft
Bus & Motor
Unknown
Mass
Unknown
Launch date (UTC)
1965-04-03 (61 years ago)
Launch vehicle
Unknown
Launch site
Air Force Western Test Range (AFWTR)
Object type
Payload
Rocket body
Debris
Shape & HBR
Unknown shape, 0.1 m
Radar Cross Section
Small (<0.1 m²)

Expand to show TLE details & history
Last TLE update: 15 hours ago

TLE from 15 hours ago
0 OPS 4682 DEB
1 17666U 65027V   26103.73135163  .00000684  00000-0  23306-2 0  9991
2 17666  90.2504  10.5557 0038593 258.6397 127.6686 12.97285663941457
Epoch: 2026-04-13T17:33Z
TLE epoch observation values (Epoch: 2026-04-13T17:33:08.780Z)
Latitude
26.68936°
Longitude
-94.77388°
Altitude
1,294.108 km
Speed
7.203 km/s
True Right ascension
00h 41m 43s
True Declination
26° 33' 40"
Sunlit
Object was in daylight at epoch
Visualization orbit readout
Latitude
Unknown
Longitude
Unknown
Altitude
Unknown
Speed
Unknown
Apparent Right ascension
Unknown
Apparent Declination
Unknown
Sunlit
N/A
Visualization observer readout
Local Sidereal Time
14:57:03
Azimuth
Unknown
Elevation
Unknown
Doppler factor
Unknown
Orbital elements
Apogee altitude
1,299.387 km
Perigee altitude
1,240.355 km
Semi-major axis
7,648.008 km
Eccentricity
0.00386
Inclination
90.2504°
RAAN
10.5557°
Arg. of periapsis
258.6397°
True anomaly
128.01763°
Mean anomaly
127.6686°
Eccentric anomaly
127.84322°
Mean motion
3.24504 °/min
Orbital period
110.94 mins
BSTAR
0.0023306
Loading maneuver chart data...
Computing Atmospheric mass density...
Loading historical data...
Loading historical data...
Loading historical data...
Loading historical data...
Loading historical data...
Loading historical data...
Loading historical data...

Documentation

Showing up to 5 results
|